Printer-friendly version
Follow the MPC on Twitter Follow the MPC on Facebook The MPC blog
Minor Planet Center

MPEC 2010-N39 : 2010 MB113

The following Minor Planet Electronic Circular may be linked-to from your own Web pages, but must not otherwise be redistributed electronically.

A form allowing access to any MPEC is at the bottom of this page.


Read MPEC 2010-N38 Read MPEC 2010-N40


M.P.E.C. 2010-N39                                Issued 2010 July 8, 19:09 UT

     The Minor Planet Electronic Circulars contain information on unusual
         minor planets and routine data on comets.  They are published
   on behalf of Commission 20 of the International Astronomical Union by the
          Minor Planet Center, Smithsonian Astrophysical Observatory,
                          Cambridge, MA 02138, U.S.A.

             Prepared using the Tamkin Foundation Computer Network

                              MPC@CFA.HARVARD.EDU
       URL http://www.minorplanetcenter.org/iau/mpc.html  ISSN 1523-6714

                                  2010 MB113

Observations:
     K10MB3B* S2010 06 28.57287 02 04 02.93 -42 12 14.8          22   R EN039C51
     K10MB3B  s2010 06 28.57287 1 + 4634.2069 -  382.7830 - 5115.0001   EN039C51
     K10MB3B  S2010 06 28.63896 02 04 27.84 -42 10 24.1                 EN039C51
     K10MB3B  s2010 06 28.63896 1 + 4666.0765 -  371.9774 - 5086.7549   EN039C51
     K10MB3B  S2010 06 28.70517 02 04 52.79 -42 08 32.7                 EN039C51
     K10MB3B  s2010 06 28.70517 1 + 4635.9242 -  372.4181 - 5114.2097   EN039C51
     K10MB3B  S2010 06 28.77126 02 05 17.45 -42 06 40.6                 EN039C51
     K10MB3B  s2010 06 28.77126 1 + 4667.1096 -  361.4458 - 5086.5484   EN039C51
     K10MB3B  S2010 06 28.83748 02 05 42.20 -42 04 46.1                 EN039C51
     K10MB3B  s2010 06 28.83748 1 + 4636.7275 -  361.8755 - 5114.2645   EN039C51
     K10MB3B  S2010 06 28.96978 02 06 31.55 -42 01 02.0                 EN039C51
     K10MB3B  s2010 06 28.96978 1 + 4639.0349 -  350.7310 - 5113.0429   EN039C51
     K10MB3B  S2010 06 29.23439 02 08 09.58 -41 53 30.3                 EN039C51
     K10MB3B  s2010 06 29.23439 1 + 4643.6930 -  329.2464 - 5110.3960   EN039C51

Observer details:
C51 WISE.  Observer W. Infrared Survey Explorer.  Measurers A. K. Mainzer,
    E. L. Wright, J. M. Bauer, T. Grav, J. W. Dailey, J. R. Masiero,
    R. M. Cutri, R. S. McMillan, R. G. Walker.

Orbital elements:
2010 MB113                                               Earth MOID = 0.2232 AU
Epoch 2010 June 13.0 TT = JDT 2455360.5                 MPC
M 333.53359              (2000.0)            P               Q
n   0.53403155     Peri.  271.06009     +0.79433589     +0.55450700
a   1.5046129      Node    55.31194     -0.36377016     +0.76127169
e   0.3222420      Incl.   17.56128     -0.48652006     +0.33613598
P   1.85           H   22.1           G   0.15
From 7 observations 2010 June 28-29.

Ephemeris:
2010 MB113               a,e,i = 1.50, 0.32, 18                  q = 1.0198
Date    TT    R. A. (2000) Decl.     Delta      r     Elong.  Phase     V
2010 07 03    02 29.91   -40 02.2    0.354    1.058    86.9    73.6    22.5
2010 07 13    03 16.30   -34 50.3    0.381    1.037    82.3    76.3    22.7
2010 07 23    03 50.70   -29 42.1    0.408    1.024    79.6    77.4    22.9
2010 08 02    04 17.69   -24 48.7    0.433    1.020    78.4    77.1    23.0

Sonia Keys                   (C) Copyright 2010 MPC           M.P.E.C. 2010-N39

Read MPEC 2010-N38 Read MPEC 2010-N40


MPEC number:

Enter an MPEC number in one of the following forms:

  • 1997-B01 (the full form)
  • J97B01 (the packed version of the full form)
  • B01 (the abbreviated form)

Valid HTML 4.01!